Regional Weather Roundup
Issued by NWS

Home | Current Version | Previous Version | Text Only | Print | Product List | Glossary Off
Versions: 1 2 3 4 5 6 7 8 9 10 11 12 13 14 15 16 17 18 19 20 21 22 23 24 25 26 27 28 29 30 31 32 33 34 35 36 37 38 39 40 41 42 43 44 45 46 47 48 49 50

000
ASUS43 KMPX 231901
RWRMN
WEATHER ROUNDUP FOR MINNESOTA
NATIONAL WEATHER SERVICE TWIN CITIES/CHANHASSEN MN
200 PM CDT THU MAR 23 2017


NOTE: "FAIR" INDICATES FEW OR NO CLOUDS BELOW 12,000 FEET WITH NO
SIGNIFICANT WEATHER AND/OR OBSTRUCTIONS TO VISIBILITY. N/A MEANS
CURRENT SKY AND/OR WEATHER CONDITIONS ARE NOT AVAILABLE.

MNZ060>063-068>070-232000-
   Twin Cities Metro

CITY           SKY/WX    TMP DP  RH WIND       PRES   REMARKS
TWIN CITIES    CLOUDY    39  27  62 SE16      29.96F
ST PAUL        CLOUDY    39  29  67 SE18      29.98F
CRYSTAL        CLOUDY    39  26  59 SE16G28   29.94F
LAKEVILLE      CLOUDY    37  30  75 SE12G22   29.95F
EDEN PRAIRIE   CLOUDY    40  28  62 SE15G26   29.93F
SOUTH ST PAUL  CLOUDY    39  28  63 SE13G18   29.97F
LAKE ELMO      CLOUDY    37  28  70 SE15      29.99F
$$
MNZ001>005-007-008-013>017-022>024-027-028-232000-
   Northwest Minnesota

CITY           SKY/WX    TMP DP  RH WIND       PRES   REMARKS
BEMIDJI        LGT RAIN  36  29  78 S9        29.87R
HALLOCK        CLOUDY    36  32  87 S13       29.81S
ROSEAU         CLOUDY    39  32  75 S12       29.83F
WARROAD        CLOUDY    41  30  65 S8        29.84F
THIEF RVR FALL MIX PCPN N/A N/A N/A S9        29.86S
CROOKSTON      MIX PCPN  34  34 100 S3        29.87R
FOSSTON        LGT RAIN  36  30  80 S5        29.86R
DETROIT LAKES  CLOUDY    39  27  60 S15       29.87R
MOORHEAD       CLOUDY    39  27  60 S15       29.85S
PARK RAPIDS    CLOUDY    39  23  52 S18       29.85F
MAHNOMEN       CLOUDY    38  29  70 S9        29.84S
$$
MNZ006-009>011-018-025>026-232000-
   North Central Minnesota

CITY           SKY/WX    TMP DP  RH WIND       PRES   REMARKS
BAUDETTE       MIX PCPN  37  29  72 S9        29.85S
FLAG ISLAND    CLOUDY    34  28  80 S12       29.83S WCI  25
INTL FALLS     LGT RAIN  38  24  57 S8        29.88F
WASKISH        LGT RAIN  36  30  80 S3        29.88R
BIG FORK       LGT RAIN  36  28  75 S8        29.91R
LONGVILLE      LGT RAIN  37  25  60 S12G20    29.89F
GRAND RAPIDS   LGT RAIN  35  26  69 SE14      29.92F WCI  26
CRANE LAKE     PTSUNNY   37  21  52 S9G16     29.91F
ORR            PTSUNNY   37  21  52 S7G16     29.88F
COOK           PTSUNNY   36  23  60 S12G18    29.91F
WALKER         RAIN      36  26  66 SE8       29.87F
$$
MNZ012-019>021-037-232000-
   Northeast Minnesota

CITY           SKY/WX    TMP DP  RH WIND       PRES   REMARKS
DULUTH         CLOUDY    36  24  62 S10       29.98F
ELY            CLOUDY    36  23  60 S10       29.94F
HIBBING        LGT RAIN  34  23  64 S7        29.93F WCI  28
EVELETH        CLOUDY    37  20  48 S8        29.95F
DULUTH HARBOR  CLOUDY    39  27  60 S13G18    30.03F
TWO HARBORS    DRIZZLE   37  28  70 S5        29.99F
SILVER BAY     CLOUDY    34  27  75 S9        30.00F WCI  26
GRAND MARAIS     N/A     34  29  82 S5        30.04F WCI  30
G MARAIS ARPRT CLOUDY    28  21  74 S8        29.98F WCI  20
$$
MNZ029>031-032-039>041-046>048-054>057-064-232000-
   West Central Minnesota

CITY           SKY/WX    TMP DP  RH WIND       PRES   REMARKS
FERGUS FALLS   CLOUDY    39  27  60 S16       29.87F
WHEATON        CLOUDY    39  32  75 SE13      29.84F HAZE
MORRIS         CLOUDY    41  28  60 SE18G25   29.80F
ALEXANDRIA     CLOUDY    39  27  62 SE15      29.86F
ELBOW LAKE     CLOUDY    40  27  59 E14       29.83F HAZE
WADENA         CLOUDY    37  27  65 SE14      29.86S
GLENWOOD       CLOUDY    39  27  60 SE17G23   29.86F
APPLETON       TSTM      41  34  75 SE13G25   29.80F
BENSON         LGT RAIN  43  27  52 S22       29.82F
ORTONVILLE     DRIZZLE   37  32  81 SE13G20   29.80F
MADISON        RAIN      39  37  93 SE28G33   29.76F
WILLMAR        DRIZZLE   41  30  65 SE18G28   29.88F
$$
MNZ033>034-036-042>043-049>051-058-059-232000-
   Central Minnesota

CITY           SKY/WX    TMP DP  RH WIND       PRES   REMARKS
ST CLOUD       CLOUDY    39  27  62 SE15      29.93F
SAUK CENTRE    CLOUDY    38  27  64 SE17      29.87F
PAYNESVILLE      N/A     38  28  64 SE13      29.90F
AITKIN         CLOUDY    39  25  56 SE13      29.90F
PINE RIVER     CLOUDY    37  27  65 S10       29.93F
BRAINERD       CLOUDY    39  24  55 SE15G23   29.89F
STAPLES        CLOUDY    37  25  60 S13       29.88F
LONG PRAIRIE   CLOUDY    37  27  65 E10       29.88F
LITTLE FALLS   MIX PCPN  37  25  60 SE10G20   29.92R
LITCHFIELD     CLOUDY    39  28  65 SE10G18   29.92F
BUFFALO        CLOUDY    39  26  59 SE10G20   29.93F
MAPLE LAKE     CLOUDY    40  29  65 SE12G20   29.93F
HUTCHINSON     CLOUDY    40  30  67 SE10      29.94F
$$
MNZ037-044-045-052-053-232000-
   East Central Minnesota

CITY           SKY/WX    TMP DP  RH WIND       PRES   REMARKS
PRINCETON      CLOUDY    43  27  52 SE16      29.94F
MORA           CLOUDY    36  23  60 SE9G18    29.96F
CAMBRIDGE      CLOUDY    43  27  52 E14       29.91F
RUSH CITY      CLOUDY    39  25  57 SE13      29.99F
MOOSE LAKE     DRIZZLE   37  23  56 S7        29.96F
HINCKLEY       CLOUDY    39  27  60 SE8G16    29.97F
CLOQUET        LGT RAIN  37  21  52 SE7       29.97F
MCGREGOR       CLOUDY    37  28  70 S10       29.93F
$$
MNZ071>073-080-081-089-090-097-098-232000-
   Southwest Minnesota

CITY           SKY/WX    TMP DP  RH WIND       PRES   REMARKS
MONTEVIDEO     LGT RAIN  39  32  75 S14G21    29.87S
GRANITE FALLS  CLOUDY    40  33  76 SE13G18   29.86F HAZE
CANBY          DRIZZLE   40  33  76 E16       29.79F
MARSHALL       CLOUDY    42  29  59 S21       29.82F
REDWOOD FALLS  CLOUDY    40  29  64 SE20      29.86F
OLIVIA         LGT RAIN  39  32  75 SE15G22   29.87S
PIPESTONE      DRIZZLE   39  32  75 S15G21    29.78F
WINDOM         MOSUNNY   43  30  61 SE21      29.84F
WORTHINGTON    CLOUDY    39  33  79 SE16      29.81F
JACKSON        CLOUDY    39  32  75 SE20G29   29.83S
TRACY          CLOUDY    42  32  67 SE17G25   29.83F
SLAYTON        CLOUDY    40  32  73 SE17G24   29.81F
$$
MNZ065>067-074>077-082>085-091>093-232000-
   South Central Minnesota

CITY           SKY/WX    TMP DP  RH WIND       PRES   REMARKS
MANKATO        CLOUDY    38  29  70 SE17G28   29.92F
NEW ULM        CLOUDY    39  28  65 SE16      29.89F
ST JAMES       CLOUDY    39  32  75 SE18G25   29.89F
FAIRMONT       LGT RAIN  39  32  76 SE25G32   29.87F
GLENCOE        CLOUDY    41  32  70 SE13G20   29.92F
FARIBAULT      CLOUDY    37  30  75 SE21      29.93F
OWATONNA       DRIZZLE   36  28  75 SE23G33   29.89F
WASECA         CLOUDY    36  30  80 SE16G29   29.94F
ALBERT LEA     CLOUDY    36  28  75 SE23G33   29.90F
$$
MNZ078>079-086>088-094>096-232000-
   Southeast Minnesota

CITY           SKY/WX    TMP DP  RH WIND       PRES   REMARKS
ROCHESTER      CLOUDY    36  31  82 S20G26    30.02F
RED WING       CLOUDY    41  21  45 SE8       30.02F
STANTON        CLOUDY    39  29  69 SE14G21   29.94F
DODGE CENTER   CLOUDY    36  30  80 SE20G25   30.00S
WINONA           N/A     41  25  52 SE13G18   30.07F
AUSTIN         DRIZZLE   36  28  75 SE15      29.98F
PRESTON        CLOUDY    38  28  67 S20G28    30.03F
$$
ABBREVIATIONS USED IN REMARKS
   TC - TEMPERATURES IN CELSIUS
  WCI - WIND CHILL INDEX
   HX - HEAT INDEX
  VSB - VISIBILITY
$$




USA.gov is the U.S. government's official web portal to all federal, state and local government web resources and services.